Volver al catálogo

STARLINK-34783

ActivoComunicacionesVLEO
NORAD 66337·PAYLOAD·🇺🇸 United States

Lanzado Nov 6, 2025 desde Cape Canaveral Space Force Station

Loading…

Próximos Pases (próximas 24 horas)

TLE

ActualizadoSource: CelesTrak SupGP

Época: Sep 15, 2026, 03:13 UTC

1 66337C 25253U   26258.13451389 -.00041708  00000+0 -15109-2 0  2586
2 66337  42.9998 223.0522 0001130 269.3108  54.9025 15.27594653    11

Sigue STARLINK-34783 en tiempo real con AllMySat

Download on the App Store